| time (UTC) | temp F | wind direction | speed MPH | gust MPH | rain 1hr in | rain 24hr in | rain mn in | humidity % | barometer mb |
| 20260506202046 | 0 | 0.0 | 0.0 | 0.00 | 0.00 | 0.00 | 1008.6 | ||
| 20260506201544 | 0 | 0.0 | 0.0 | 0.00 | 0.00 | 0.00 | 1008.7 | ||
| 20260506201040 | 43 | 357 | 5.0 | 6.0 | 0.00 | 0.73 | 0.73 | 99 | 1008.6 |
| 20260506200536 | 43 | 357 | 5.0 | 6.0 | 0.00 | 0.73 | 0.73 | 99 | 1008.7 |
| 20260506200033 | 43 | 357 | 5.0 | 6.0 | 0.07 | 0.73 | 0.73 | 99 | 1008.6 |
| 20260506195530 | 43 | 41 | 3.0 | 4.0 | 0.07 | 0.73 | 0.73 | 99 | 1008.6 |
| 20260506195026 | 43 | 326 | 6.0 | 8.0 | 0.00 | 0.72 | 0.72 | 99 | 1008.6 |
| 20260506194524 | 43 | 31 | 3.0 | 3.0 | 0.00 | 0.72 | 0.72 | 99 | 1008.6 |
| 20260506194021 | 0 | 0.0 | 0.0 | 0.00 | 0.00 | 0.00 | 1008.7 | ||
| 20260506193518 | 0 | 0.0 | 0.0 | 0.00 | 0.00 | 0.00 | 1008.7 | ||
| 20260506193015 | 44 | 12 | 3.0 | 4.0 | 0.00 | 0.72 | 0.72 | 99 | 1008.6 |
| 20260506192512 | 44 | 62 | 2.0 | 4.0 | 0.00 | 0.72 | 0.72 | 99 | 1008.4 |
| 20260506192008 | 44 | 344 | 3.0 | 3.0 | 0.05 | 0.72 | 0.72 | 99 | 1008.3 |
| 20260506191505 | 44 | 330 | 4.0 | 4.0 | 0.05 | 0.72 | 0.72 | 99 | 1008.5 |
| 20260506191001 | 44 | 329 | 4.0 | 6.0 | 0.00 | 0.71 | 0.71 | 99 | 1008.2 |
| 20260506190458 | 44 | 330 | 3.0 | 4.0 | 0.00 | 0.71 | 0.71 | 99 | 1008.6 |
| 20260506185954 | 44 | 336 | 2.0 | 3.0 | 0.00 | 0.71 | 0.71 | 99 | 1008.3 |
| 20260506185451 | 44 | 336 | 2.0 | 3.0 | 0.07 | 0.71 | 0.71 | 99 | 1008.5 |
| 20260506184943 | 43 | 47 | 2.0 | 3.0 | 0.07 | 0.71 | 0.71 | 99 | 1008.3 |
| 20260506184440 | 43 | 350 | 1.0 | 2.0 | 0.00 | 0.70 | 0.70 | 99 | 1008.5 |
| 20260506183937 | 44 | 321 | 1.0 | 3.0 | 0.05 | 0.70 | 0.70 | 99 | 1008.7 |
| 20260506183432 | 43 | 71 | 0.0 | 0.0 | 0.05 | 0.70 | 0.70 | 99 | 1008.5 |
| 20260506182930 | 43 | 335 | 3.0 | 7.0 | 0.00 | 0.69 | 0.69 | 99 | 1008.7 |
| 20260506182427 | 43 | 335 | 3.0 | 7.0 | 0.00 | 0.69 | 0.69 | 99 | 1008.8 |
| 20260506181924 | 43 | 303 | 4.0 | 6.0 | 0.00 | 0.69 | 0.69 | 99 | 1009.0 |
| 20260506181422 | 44 | 355 | 3.0 | 4.0 | 0.00 | 0.69 | 0.69 | 99 | 1008.9 |
| 20260506180918 | 43 | 342 | 2.0 | 2.0 | 0.00 | 0.69 | 0.69 | 99 | 1009.0 |
| 20260506180414 | 44 | 345 | 4.0 | 4.0 | 0.07 | 0.69 | 0.69 | 99 | 1009.1 |
| 20260506175912 | 43 | 53 | 2.0 | 2.0 | 0.07 | 0.69 | 0.69 | 99 | 1009.0 |
| 20260506175409 | 43 | 69 | 1.0 | 2.0 | 0.00 | 0.68 | 0.68 | 99 | 1009.1 |
| 20260506174905 | 43 | 52 | 1.0 | 1.0 | 0.05 | 0.68 | 0.68 | 99 | 1009.3 |
| 20260506174403 | 43 | 23 | 2.0 | 3.0 | 0.05 | 0.68 | 0.68 | 99 | 1009.3 |
| 20260506173900 | 43 | 332 | 4.0 | 6.0 | 0.00 | 0.67 | 0.67 | 99 | 1009.2 |
| 20260506173356 | 43 | 334 | 3.0 | 3.0 | 0.00 | 0.67 | 0.67 | 99 | 1009.5 |
| 20260506172854 | 43 | 0 | 3.0 | 4.0 | 0.07 | 0.67 | 0.67 | 99 | 1009.4 |
| 20260506172350 | 43 | 349 | 2.0 | 3.0 | 0.14 | 0.67 | 0.67 | 99 | 1009.3 |
| 20260506171848 | 43 | 336 | 2.0 | 4.0 | 0.12 | 0.66 | 0.66 | 99 | 1009.4 |
| 20260506171344 | 42 | 331 | 4.0 | 6.0 | 0.05 | 0.65 | 0.65 | 99 | 1009.6 |
| 20260506170842 | 42 | 314 | 3.0 | 4.0 | 0.05 | 0.65 | 0.65 | 99 | 1009.4 |
| 20260506170337 | 43 | 348 | 3.0 | 4.0 | 0.07 | 0.64 | 0.64 | 99 | 1009.5 |
| 20260506165831 | 42 | 346 | 3.0 | 4.0 | 0.07 | 0.64 | 0.64 | 99 | 1009.3 |
| 20260506165328 | 43 | 327 | 4.0 | 4.0 | 0.00 | 0.63 | 0.63 | 99 | 1009.4 |
| 20260506164819 | 43 | 351 | 2.0 | 3.0 | 0.00 | 0.63 | 0.63 | 99 | 1009.4 |
| 20260506164316 | 42 | 335 | 5.0 | 6.0 | 0.05 | 0.63 | 0.63 | 99 | 1009.6 |
| 20260506163814 | 43 | 354 | 3.0 | 4.0 | 0.05 | 0.63 | 0.63 | 99 | 1009.9 |
| 20260506163308 | 42 | 1 | 6.0 | 7.0 | 0.12 | 0.63 | 0.63 | 99 | 1009.6 |
| 20260506162803 | 42 | 22 | 2.0 | 3.0 | 0.12 | 0.62 | 0.62 | 99 | 1009.7 |
| 20260506162302 | 42 | 25 | 2.0 | 3.0 | 0.05 | 0.61 | 0.61 | 99 | 1009.8 |
| 20260506161758 | 42 | 344 | 0.0 | 2.0 | 0.31 | 0.60 | 0.60 | 99 | 1009.8 |
| 20260506161256 | 42 | 326 | 7.0 | 8.0 | 0.31 | 0.60 | 0.60 | 99 | 1009.8 |
| 20260506160753 | 0 | 0.0 | 0.0 | 0.00 | 0.00 | 0.00 | 1009.9 | ||
| 20260506160250 | 0 | 0.0 | 0.0 | 0.00 | 0.00 | 0.00 | 1010.1 | ||
| 20260506155744 | 0 | 0.0 | 0.0 | 0.00 | 0.00 | 0.00 | 1010.1 | ||
| 20260506155240 | 42 | 356 | 3.0 | 4.0 | 0.05 | 0.55 | 0.55 | 99 | 1009.8 |
| 20260506153353 | 0 | 0.0 | 0.0 | 0.00 | 0.00 | 0.00 | 1010.1 | ||
| 20260506152850 | 0 | 0.0 | 0.0 | 0.00 | 0.00 | 0.00 | 1010.1 | ||
| 20260506152347 | 0 | 0.0 | 0.0 | 0.00 | 0.00 | 0.00 | 1010.2 | ||
| 20260506151845 | 0 | 0.0 | 0.0 | 0.00 | 0.00 | 0.00 | 1009.7 | ||
| 20260506151342 | 0 | 0.0 | 0.0 | 0.00 | 0.00 | 0.00 | 1010.2 | ||
| 20260506150839 | 0 | 0.0 | 0.0 | 0.00 | 0.00 | 0.00 | 1009.9 | ||
| 20260506150336 | 0 | 0.0 | 0.0 | 0.00 | 0.00 | 0.00 | 1010.0 | ||
| 20260506145832 | 0 | 0.0 | 0.0 | 0.00 | 0.00 | 0.00 | 1009.8 | ||
| 20260506145329 | 0 | 0.0 | 0.0 | 0.00 | 0.00 | 0.00 | 1009.9 | ||
| 20260506144826 | 0 | 0.0 | 0.0 | 0.00 | 0.00 | 0.00 | 1009.6 | ||
| 20260506144323 | 0 | 0.0 | 0.0 | 0.00 | 0.00 | 0.00 | 1009.5 | ||
| 20260506143821 | 0 | 0.0 | 0.0 | 0.00 | 0.00 | 0.00 | 1009.5 | ||
| 20260506143318 | 0 | 0.0 | 0.0 | 0.00 | 0.00 | 0.00 | 1009.6 | ||
| 20260506142816 | 0 | 0.0 | 0.0 | 0.00 | 0.00 | 0.00 | 1009.8 | ||
| 20260506142314 | 0 | 0.0 | 0.0 | 0.00 | 0.00 | 0.00 | 1009.6 | ||
| 20260506141812 | 0 | 0.0 | 0.0 | 0.00 | 0.00 | 0.00 | 1009.6 | ||
| 20260506141310 | 0 | 0.0 | 0.0 | 0.00 | 0.00 | 0.00 | 1009.8 | ||
| 20260506140807 | 0 | 0.0 | 0.0 | 0.00 | 0.00 | 0.00 | 1010.0 | ||
| 20260506140304 | 0 | 0.0 | 0.0 | 0.00 | 0.00 | 0.00 | 1010.0 | ||
| 20260506135801 | 0 | 0.0 | 0.0 | 0.00 | 0.00 | 0.00 | 1009.9 | ||
| 20260506135257 | 0 | 0.0 | 0.0 | 0.00 | 0.00 | 0.00 | 1009.8 | ||
| 20260506134754 | 0 | 0.0 | 0.0 | 0.00 | 0.00 | 0.00 | 1009.7 | ||
| 20260506134250 | 0 | 0.0 | 0.0 | 0.00 | 0.00 | 0.00 | 1009.6 | ||
| 20260506133748 | 0 | 0.0 | 0.0 | 0.00 | 0.00 | 0.00 | 1010.0 | ||
| 20260506133244 | 0 | 0.0 | 0.0 | 0.00 | 0.00 | 0.00 | 1009.7 | ||
| 20260506132741 | 0 | 0.0 | 0.0 | 0.00 | 0.00 | 0.00 | 1009.8 | ||
| 20260506132238 | 0 | 0.0 | 0.0 | 0.00 | 0.00 | 0.00 | 1009.7 | ||
| 20260506131736 | 0 | 0.0 | 0.0 | 0.00 | 0.00 | 0.00 | 1009.9 | ||
| 20260506131232 | 0 | 0.0 | 0.0 | 0.00 | 0.00 | 0.00 | 1009.9 | ||
| 20260506130729 | 0 | 0.0 | 0.0 | 0.00 | 0.00 | 0.00 | 1010.1 | ||
| 20260506130226 | 0 | 0.0 | 0.0 | 0.00 | 0.00 | 0.00 | 1009.9 | ||
| 20260506125724 | 0 | 0.0 | 0.0 | 0.00 | 0.00 | 0.00 | 1010.2 | ||
| 20260506125222 | 0 | 0.0 | 0.0 | 0.00 | 0.00 | 0.00 | 1010.3 | ||
| 20260506124720 | 0 | 0.0 | 0.0 | 0.00 | 0.00 | 0.00 | 1010.4 | ||
| 20260506124217 | 0 | 0.0 | 0.0 | 0.00 | 0.00 | 0.00 | 1010.5 | ||
| 20260506123714 | 0 | 0.0 | 0.0 | 0.00 | 0.00 | 0.00 | 1010.3 | ||
| 20260506123213 | 0 | 0.0 | 0.0 | 0.00 | 0.00 | 0.00 | 1010.4 | ||
| 20260506122709 | 0 | 0.0 | 0.0 | 0.00 | 0.00 | 0.00 | 1010.3 | ||
| 20260506122207 | 0 | 0.0 | 0.0 | 0.00 | 0.00 | 0.00 | 1010.3 | ||
| 20260506121705 | 0 | 0.0 | 0.0 | 0.00 | 0.00 | 0.00 | 1010.4 | ||
| 20260506121201 | 0 | 0.0 | 0.0 | 0.00 | 0.00 | 0.00 | 1010.3 | ||
| 20260506120659 | 0 | 0.0 | 0.0 | 0.00 | 0.00 | 0.00 | 1010.4 | ||
| 20260506120156 | 0 | 0.0 | 0.0 | 0.00 | 0.00 | 0.00 | 1010.6 | ||
| 20260506115654 | 0 | 0.0 | 0.0 | 0.00 | 0.00 | 0.00 | 1011.0 | ||
| 20260506115152 | 0 | 0.0 | 0.0 | 0.00 | 0.00 | 0.00 | 1010.7 | ||
| 20260506114649 | 0 | 0.0 | 0.0 | 0.00 | 0.00 | 0.00 | 1010.9 | ||
| 20260506114147 | 0 | 0.0 | 0.0 | 0.00 | 0.00 | 0.00 | 1010.5 | ||
| 20260506113645 | 0 | 0.0 | 0.0 | 0.00 | 0.00 | 0.00 | 1010.7 | ||
| 20260506113142 | 0 | 0.0 | 0.0 | 0.00 | 0.00 | 0.00 | 1010.8 | ||
| 20260506112638 | 0 | 0.0 | 0.0 | 0.00 | 0.00 | 0.00 | 1010.8 | ||
| 20260506112136 | 0 | 0.0 | 0.0 | 0.00 | 0.00 | 0.00 | 1010.8 | ||
| 20260506111633 | 0 | 0.0 | 0.0 | 0.00 | 0.00 | 0.00 | 1010.7 | ||
| 20260506111131 | 0 | 0.0 | 0.0 | 0.00 | 0.00 | 0.00 | 1010.4 | ||
| 20260506110628 | 0 | 0.0 | 0.0 | 0.00 | 0.00 | 0.00 | 1010.2 | ||
| 20260506110126 | 0 | 0.0 | 0.0 | 0.00 | 0.00 | 0.00 | 1010.1 | ||
| 20260506105622 | 0 | 0.0 | 0.0 | 0.00 | 0.00 | 0.00 | 1009.8 | ||
| 20260506105119 | 0 | 0.0 | 0.0 | 0.00 | 0.00 | 0.00 | 1009.9 | ||
| 20260506104617 | 0 | 0.0 | 0.0 | 0.00 | 0.00 | 0.00 | 1009.8 | ||
| 20260506104114 | 46 | 347 | 4.0 | 6.0 | 0.00 | 0.24 | 0.24 | 99 | 1009.7 |
| 20260506103612 | 46 | 347 | 4.0 | 6.0 | 0.78 | 0.24 | 0.24 | 99 | 1009.9 |
| 20260506103108 | 46 | 0 | 0.0 | 1.0 | 0.78 | 0.24 | 0.24 | 99 | 1010.4 |
| 20260506102607 | 0 | 0.0 | 0.0 | 0.00 | 0.00 | 0.00 | 1010.2 | ||
| 20260506102104 | 0 | 0.0 | 0.0 | 0.00 | 0.00 | 0.00 | 1010.3 | ||
| 20260506101600 | 0 | 0.0 | 0.0 | 0.00 | 0.00 | 0.00 | 1009.9 | ||
| 20260506101057 | 0 | 0.0 | 0.0 | 0.00 | 0.00 | 0.00 | 1010.0 | ||
| 20260506100555 | 0 | 0.0 | 0.0 | 0.00 | 0.00 | 0.00 | 1010.1 | ||
| 20260506100053 | 0 | 0.0 | 0.0 | 0.00 | 0.00 | 0.00 | 1010.2 | ||
| 20260506095552 | 0 | 0.0 | 0.0 | 0.00 | 0.00 | 0.00 | 1010.1 | ||
| 20260506095048 | 0 | 0.0 | 0.0 | 0.00 | 0.00 | 0.00 | 1010.1 | ||
| 20260506094546 | 0 | 0.0 | 0.0 | 0.00 | 0.00 | 0.00 | 1010.1 | ||
| 20260506094043 | 0 | 0.0 | 0.0 | 0.00 | 0.00 | 0.00 | 1009.9 | ||
| 20260506093541 | 0 | 0.0 | 0.0 | 0.00 | 0.00 | 0.00 | 1010.1 | ||
| 20260506093038 | 0 | 0.0 | 0.0 | 0.00 | 0.00 | 0.00 | 1010.1 | ||
| 20260506092536 | 0 | 0.0 | 0.0 | 0.00 | 0.00 | 0.00 | 1010.0 | ||
| 20260506092033 | 0 | 0.0 | 0.0 | 0.00 | 0.00 | 0.00 | 1010.1 | ||
| 20260506091531 | 0 | 0.0 | 0.0 | 0.00 | 0.00 | 0.00 | 1010.0 | ||
| 20260506091028 | 0 | 0.0 | 0.0 | 0.00 | 0.00 | 0.00 | 1010.4 | ||
| 20260506090526 | 0 | 0.0 | 0.0 | 0.00 | 0.00 | 0.00 | 1010.1 | ||
| 20260506090022 | 0 | 0.0 | 0.0 | 0.00 | 0.00 | 0.00 | 1010.3 | ||
| 20260506085519 | 0 | 0.0 | 0.0 | 0.00 | 0.00 | 0.00 | 1010.4 | ||
| 20260506085015 | 0 | 0.0 | 0.0 | 0.00 | 0.00 | 0.00 | 1010.0 | ||
| 20260506084513 | 0 | 0.0 | 0.0 | 0.00 | 0.00 | 0.00 | 1010.3 | ||
| 20260506084008 | 0 | 0.0 | 0.0 | 0.00 | 0.00 | 0.00 | 1010.1 | ||
| 20260506083506 | 0 | 0.0 | 0.0 | 0.00 | 0.00 | 0.00 | 1009.9 | ||
| 20260506083003 | 0 | 0.0 | 0.0 | 0.00 | 0.00 | 0.00 | 1010.0 | ||
| 20260506082500 | 0 | 0.0 | 0.0 | 0.00 | 0.00 | 0.00 | 1010.0 | ||
| 20260506081955 | 0 | 0.0 | 0.0 | 0.00 | 0.00 | 0.00 | 1010.0 | ||
| 20260506081454 | 0 | 0.0 | 0.0 | 0.00 | 0.00 | 0.00 | 1010.1 | ||
| 20260506080951 | 0 | 0.0 | 0.0 | 0.00 | 0.00 | 0.00 | 1010.3 | ||
| 20260506080448 | 0 | 0.0 | 0.0 | 0.00 | 0.00 | 0.00 | 1009.9 | ||
| 20260506073432 | 51 | 60 | 0.0 | 1.0 | 0.66 | 0.11 | 0.11 | 99 | 1010.1 |
| 20260506072929 | 51 | 60 | 0.0 | 1.0 | 0.66 | 0.11 | 0.11 | 99 | 1009.7 |
| 20260506072426 | 51 | 68 | 1.0 | 2.0 | 0.66 | 0.11 | 0.11 | 99 | 1009.7 |
| 20260506071924 | 0 | 0.0 | 0.0 | 0.00 | 0.00 | 0.00 | 1010.3 | ||
| 20260506071422 | 0 | 0.0 | 0.0 | 0.00 | 0.00 | 0.00 | 1010.1 | ||
| 20260506070918 | 0 | 0.0 | 0.0 | 0.00 | 0.00 | 0.00 | 1009.8 | ||
| 20260506070415 | 0 | 0.0 | 0.0 | 0.00 | 0.00 | 0.00 | 1010.0 | ||
| 20260506062353 | 0 | 0.0 | 0.0 | 0.00 | 0.00 | 0.00 | 1010.0 | ||
| 20260506061848 | 0 | 0.0 | 0.0 | 0.00 | 0.00 | 0.00 | 1009.8 | ||
| 20260506061345 | 0 | 0.0 | 0.0 | 0.00 | 0.00 | 0.00 | 1009.6 | ||
| 20260506060843 | 0 | 0.0 | 0.0 | 0.00 | 0.00 | 0.00 | 1009.7 | ||
| 20260506060341 | 0 | 0.0 | 0.0 | 0.00 | 0.00 | 0.00 | 1009.9 | ||
| 20260506051313 | 0 | 0.0 | 0.0 | 0.00 | 0.00 | 0.00 | 1009.5 | ||
| 20260506050811 | 0 | 0.0 | 0.0 | 0.00 | 0.00 | 0.00 | 1009.7 | ||
| 20260506050308 | 0 | 0.0 | 0.0 | 0.00 | 0.00 | 0.00 | 1010.0 | ||
| 20260506044758 | 0 | 0.0 | 0.0 | 0.00 | 0.00 | 0.00 | 1009.7 | ||
| 20260506044256 | 0 | 0.0 | 0.0 | 0.00 | 0.00 | 0.00 | 1009.7 | ||
| 20260506043753 | 0 | 0.0 | 0.0 | 0.00 | 0.00 | 0.00 | 1009.3 | ||
| 20260506043250 | 0 | 0.0 | 0.0 | 0.00 | 0.00 | 0.00 | 1009.4 | ||
| 20260506042749 | 0 | 0.0 | 0.0 | 0.00 | 0.00 | 0.00 | 1009.2 | ||
| 20260506042248 | 0 | 0.0 | 0.0 | 0.00 | 0.00 | 0.00 | 1009.2 | ||
| 20260506041746 | 0 | 0.0 | 0.0 | 0.00 | 0.00 | 0.00 | 1009.2 | ||
| 20260506041242 | 0 | 0.0 | 0.0 | 0.00 | 0.00 | 0.00 | 1009.2 | ||
| 20260506040740 | 0 | 0.0 | 0.0 | 0.00 | 0.00 | 0.00 | 1009.1 | ||
| 20260506040237 | 0 | 0.0 | 0.0 | 0.00 | 0.00 | 0.00 | 1009.1 | ||
| 20260506035733 | 0 | 0.0 | 0.0 | 0.00 | 0.00 | 0.00 | 1009.3 | ||
| 20260506035230 | 0 | 0.0 | 0.0 | 0.00 | 0.00 | 0.00 | 1009.6 | ||
| 20260506034727 | 0 | 0.0 | 0.0 | 0.00 | 0.00 | 0.00 | 1009.4 | ||
| 20260506034224 | 0 | 0.0 | 0.0 | 0.00 | 0.00 | 0.00 | 1009.4 | ||
| 20260506033721 | 0 | 0.0 | 0.0 | 0.00 | 0.00 | 0.00 | 1009.5 | ||
| 20260506033218 | 0 | 0.0 | 0.0 | 0.00 | 0.00 | 0.00 | 1009.2 | ||
| 20260506032715 | 0 | 0.0 | 0.0 | 0.00 | 0.00 | 0.00 | 1009.2 | ||
| 20260506032212 | 0 | 0.0 | 0.0 | 0.00 | 0.00 | 0.00 | 1008.8 | ||
| 20260506031709 | 0 | 0.0 | 0.0 | 0.00 | 0.00 | 0.00 | 1008.9 | ||
| 20260506031206 | 0 | 0.0 | 0.0 | 0.00 | 0.00 | 0.00 | 1008.9 | ||
| 20260506030704 | 0 | 0.0 | 0.0 | 0.00 | 0.00 | 0.00 | 1008.6 | ||
| 20260506030202 | 58 | 337 | 1.0 | 1.0 | 0.00 | 0.10 | 0.10 | 72 | 1008.8 |
| 20260506025658 | 58 | 337 | 1.0 | 1.0 | 0.00 | 0.10 | 0.10 | 72 | 1008.9 |
| 20260506025154 | 58 | 337 | 1.0 | 1.0 | 0.00 | 0.10 | 0.10 | 72 | 1008.7 |
| 20260506024652 | 58 | 21 | 0.0 | 0.0 | 0.00 | 0.10 | 0.10 | 71 | 1008.7 |
| 20260506024148 | 59 | 106 | 0.0 | 0.0 | 0.00 | 0.10 | 0.10 | 71 | 1008.3 |
| 20260506023644 | 59 | 338 | 2.0 | 2.0 | 0.00 | 0.10 | 0.10 | 70 | 1008.3 |
| 20260506023142 | 59 | 289 | 9.0 | 10.0 | 0.00 | 0.10 | 0.10 | 70 | 1008.6 |
| 20260506022639 | 59 | 304 | 8.0 | 9.0 | 0.00 | 0.10 | 0.10 | 71 | 1008.4 |
| 20260506022136 | 59 | 326 | 10.0 | 10.0 | 0.00 | 0.10 | 0.10 | 73 | 1008.5 |
| 20260506021634 | 60 | 153 | 9.0 | 10.0 | 0.00 | 0.10 | 0.10 | 77 | 1008.5 |
| 20260506021131 | 60 | 322 | 6.0 | 8.0 | 0.00 | 0.10 | 0.10 | 84 | 1008.2 |
| 20260506020628 | 60 | 332 | 3.0 | 6.0 | 0.05 | 0.10 | 0.10 | 88 | 1008.0 |
| 20260506020125 | 60 | 23 | 5.0 | 6.0 | 0.05 | 0.10 | 0.10 | 87 | 1007.9 |
| 20260506015623 | 61 | 50 | 2.0 | 2.0 | 0.00 | 0.09 | 0.09 | 87 | 1008.0 |
| 20260506015120 | 0 | 0.0 | 0.0 | 0.00 | 0.00 | 0.00 | 1007.8 | ||
| 20260506014617 | 0 | 0.0 | 0.0 | 0.00 | 0.00 | 0.00 | 1008.0 | ||
| 20260506014112 | 0 | 0.0 | 0.0 | 0.00 | 0.00 | 0.00 | 1007.8 | ||
| 20260506013611 | 0 | 0.0 | 0.0 | 0.00 | 0.00 | 0.00 | 1007.7 | ||
| 20260506013108 | 0 | 0.0 | 0.0 | 0.00 | 0.00 | 0.00 | 1007.7 | ||
| 20260506012604 | 0 | 0.0 | 0.0 | 0.00 | 0.00 | 0.00 | 1007.6 | ||
| 20260506012100 | 0 | 0.0 | 0.0 | 0.00 | 0.00 | 0.00 | 1007.2 | ||
| 20260506011553 | 60 | 115 | 0.0 | 0.0 | 0.07 | 0.09 | 0.09 | 92 | 1007.4 |
| 20260506011048 | 60 | 115 | 0.0 | 0.0 | 0.07 | 0.09 | 0.09 | 92 | 1006.8 |
| 20260506010548 | 0 | 0.0 | 0.0 | 0.00 | 0.00 | 0.00 | 1007.0 | ||
| 20260506010044 | 0 | 0.0 | 0.0 | 0.00 | 0.00 | 0.00 | 1006.7 | ||
| 20260506005542 | 0 | 0.0 | 0.0 | 0.00 | 0.00 | 0.00 | 1006.6 | ||
| 20260506005037 | 0 | 0.0 | 0.0 | 0.00 | 0.00 | 0.00 | 1006.8 | ||
| 20260506004535 | 0 | 0.0 | 0.0 | 0.00 | 0.00 | 0.00 | 1006.8 | ||
| 20260506004031 | 0 | 0.0 | 0.0 | 0.00 | 0.00 | 0.00 | 1006.9 | ||
| 20260506003528 | 0 | 0.0 | 0.0 | 0.00 | 0.00 | 0.00 | 1006.7 | ||
| 20260506003024 | 0 | 0.0 | 0.0 | 0.00 | 0.00 | 0.00 | 1006.6 | ||
| 20260506002520 | 0 | 0.0 | 0.0 | 0.00 | 0.00 | 0.00 | 1006.4 | ||
| 20260506002016 | 0 | 0.0 | 0.0 | 0.00 | 0.00 | 0.00 | 1006.4 | ||
| 20260506001513 | 0 | 0.0 | 0.0 | 0.00 | 0.00 | 0.00 | 1006.2 | ||
| 20260506001010 | 0 | 0.0 | 0.0 | 0.00 | 0.00 | 0.00 | 1006.2 | ||
| 20260506000508 | 0 | 0.0 | 0.0 | 0.00 | 0.00 | 0.00 | 1006.2 | ||
| 20260506000004 | 0 | 0.0 | 0.0 | 0.00 | 0.00 | 0.00 | 1006.1 | ||
| 20260505235503 | 0 | 0.0 | 0.0 | 0.00 | 0.00 | 0.00 | 1006.0 | ||
| 20260505234959 | 0 | 0.0 | 0.0 | 0.00 | 0.00 | 0.00 | 1006.0 | ||
| 20260505234456 | 0 | 0.0 | 0.0 | 0.00 | 0.00 | 0.00 | 1006.1 | ||
| 20260505233953 | 0 | 0.0 | 0.0 | 0.00 | 0.00 | 0.00 | 1006.0 | ||
| 20260505233451 | 0 | 0.0 | 0.0 | 0.00 | 0.00 | 0.00 | 1005.9 | ||
| 20260505232948 | 0 | 0.0 | 0.0 | 0.00 | 0.00 | 0.00 | 1005.9 | ||
| 20260505232446 | 0 | 0.0 | 0.0 | 0.00 | 0.00 | 0.00 | 1006.0 | ||
| 20260505231943 | 0 | 0.0 | 0.0 | 0.00 | 0.00 | 0.00 | 1006.1 | ||
| 20260505231440 | 0 | 0.0 | 0.0 | 0.00 | 0.00 | 0.00 | 1006.1 | ||
| 20260505230938 | 0 | 0.0 | 0.0 | 0.00 | 0.00 | 0.00 | 1006.0 | ||
| 20260505230435 | 0 | 0.0 | 0.0 | 0.00 | 0.00 | 0.00 | 1005.8 | ||
| 20260505225931 | 0 | 0.0 | 0.0 | 0.00 | 0.00 | 0.00 | 1005.7 | ||
| 20260505225429 | 0 | 0.0 | 0.0 | 0.00 | 0.00 | 0.00 | 1005.5 | ||
| 20260505224924 | 0 | 0.0 | 0.0 | 0.00 | 0.00 | 0.00 | 1005.4 | ||
| 20260505224422 | 0 | 0.0 | 0.0 | 0.00 | 0.00 | 0.00 | 1005.5 | ||
| 20260505223919 | 0 | 0.0 | 0.0 | 0.00 | 0.00 | 0.00 | 1005.6 | ||
| 20260505223416 | 0 | 0.0 | 0.0 | 0.00 | 0.00 | 0.00 | 1005.4 | ||
| 20260505222912 | 0 | 0.0 | 0.0 | 0.00 | 0.00 | 0.00 | 1005.5 | ||
| 20260505222408 | 0 | 0.0 | 0.0 | 0.00 | 0.00 | 0.00 | 1005.6 | ||
| 20260505221905 | 0 | 0.0 | 0.0 | 0.00 | 0.00 | 0.00 | 1005.5 | ||
| 20260505221402 | 0 | 0.0 | 0.0 | 0.00 | 0.00 | 0.00 | 1005.7 | ||
| 20260505220859 | 0 | 0.0 | 0.0 | 0.00 | 0.00 | 0.00 | 1005.7 | ||
| 20260505220356 | 0 | 0.0 | 0.0 | 0.00 | 0.00 | 0.00 | 1005.6 | ||
| 20260505215853 | 0 | 0.0 | 0.0 | 0.00 | 0.00 | 0.00 | 1005.6 | ||
| 20260505215351 | 0 | 0.0 | 0.0 | 0.00 | 0.00 | 0.00 | 1005.3 | ||
| 20260505214849 | 0 | 0.0 | 0.0 | 0.00 | 0.00 | 0.00 | 1005.6 | ||
| 20260505214346 | 0 | 0.0 | 0.0 | 0.00 | 0.00 | 0.00 | 1005.5 | ||
| 20260505213843 | 0 | 0.0 | 0.0 | 0.00 | 0.00 | 0.00 | 1005.4 | ||
| 20260505213341 | 0 | 0.0 | 0.0 | 0.00 | 0.00 | 0.00 | 1005.5 | ||
| 20260505212837 | 0 | 0.0 | 0.0 | 0.00 | 0.00 | 0.00 | 1005.2 | ||
| 20260505212334 | 0 | 0.0 | 0.0 | 0.00 | 0.00 | 0.00 | 1005.3 | ||
| 20260505211830 | 0 | 0.0 | 0.0 | 0.00 | 0.00 | 0.00 | 1005.3 | ||
| 20260505211328 | 0 | 0.0 | 0.0 | 0.00 | 0.00 | 0.00 | 1005.3 | ||
| 20260505210824 | 0 | 0.0 | 0.0 | 0.00 | 0.00 | 0.00 | 1005.3 | ||
| 20260505210321 | 0 | 0.0 | 0.0 | 0.00 | 0.00 | 0.00 | 1005.0 | ||
| 20260505205818 | 0 | 0.0 | 0.0 | 0.00 | 0.00 | 0.00 | 1004.7 | ||
| 20260505205317 | 0 | 0.0 | 0.0 | 0.00 | 0.00 | 0.00 | 1004.7 | ||
| 20260505204813 | 0 | 0.0 | 0.0 | 0.00 | 0.00 | 0.00 | 1004.4 | ||
| 20260505204311 | 0 | 0.0 | 0.0 | 0.00 | 0.00 | 0.00 | 1004.4 | ||
| 20260505203808 | 0 | 0.0 | 0.0 | 0.00 | 0.00 | 0.00 | 1004.4 | ||
| 20260505203305 | 0 | 0.0 | 0.0 | 0.00 | 0.00 | 0.00 | 1004.5 | ||
| 20260505202801 | 0 | 0.0 | 0.0 | 0.00 | 0.00 | 0.00 | 1004.4 | ||
| 20260505202257 | 0 | 0.0 | 0.0 | 0.00 | 0.00 | 0.00 | 1004.2 |